Weather History for Gerona / Costa Brava, Spain

Change the Weather History Date:

Sunday, May 26, 2013

  Actual Average Record
Temperature  
Mean Temperature 52 °F -  
Max Temperature 64 °F 80 °F - ()
Min Temperature 39 °F 57 °F - ()
Degree Days  
Heating Degree Days 14    
Growing Degree Days 2 (Base 50)    
Moisture  
Dew Point 48 °F    
Average Humidity 85    
Maximum Humidity 100    
Minimum Humidity 59    
Precipitation  
Precipitation 0.00 in 0.09 in - ()
Sea Level Pressure  
Sea Level Pressure 30.07 in    
Wind  
Wind Speed 4 mph ()    
Max Wind Speed 22 mph    
Max Gust Speed -    
Visibility 5.9 miles    
Events Fog    
T = Trace of Precipitation, MM = Missing Value Source: Averaged Metar Reports

Daily Weather History Graph

Daily Weather History Graph

Search for Another Location

Airport:

Trip Planner

Search our weather history database for the weather conditions in past years. The results will help you decide how hot, cold, wet, or windy it might be!

Date:

Astronomy

May. 26, 2013 Rise Set
Actual Time 6:19 AM CEST 9:12 PM CEST
Civil Twilight 5:46 AM CEST 9:46 PM CEST
Nautical Twilight 5:04 AM CEST 10:27 PM CEST
Astronomical Twilight 4:16 AM CEST 11:16 PM CEST
Moon 10:45 PM CEST (5/26) 7:32 AM CEST (5/26)
Length of Visible Light 15h 59m
Length of Day
14h 53m
Full, 98% of the Moon is Illuminated
May 26
Full
May 31
Last Quarter
Jun 8
New
Jun 16
First Quarter
Jun 23
Full

Hourly Weather History & Observations

Time (CEST) Temp. Windchill Dew Point Humidity Pressure Visibility Wind Dir Wind Speed Gust Speed Precip Events Conditions
12:00 AM 48.2 °F - 48.2 °F 100% 30.12 in 6.2 mi West 1.2 mph - N/A   Scattered Clouds
12:30 AM 46.4 °F 45.2 °F 46.4 °F 100% 30.12 in 6.2 mi West 3.5 mph - N/A   Partly Cloudy
1:00 AM 46.4 °F - 46.4 °F 100% 30.12 in 6.2 mi Variable 2.3 mph - N/A   Partly Cloudy
1:30 AM 44.6 °F - 44.6 °F 100% 30.12 in 6.2 mi Calm Calm - N/A Fog Patches of Fog
2:00 AM 44 °F - 44 °F 100% 30.12 in 12 mi Calm Calm - -   Scattered Clouds
2:00 AM 44.6 °F - 44.6 °F 100% 30.12 in 6.2 mi Calm Calm - N/A Fog Patches of Fog
2:30 AM 44.6 °F - 44.6 °F 100% 30.12 in 6.2 mi Calm Calm - N/A Fog Patches of Fog
3:00 AM 44.6 °F 42.2 °F 44.6 °F 100% 30.12 in 6.2 mi North 4.6 mph - N/A   Unknown
3:08 AM 42.8 °F - 42.8 °F 100% 30.12 in 0.5 mi North 2.3 mph - N/A Fog Fog
3:30 AM 42.8 °F - 42.8 °F 100% 30.12 in 0.5 mi North 1.2 mph - N/A   Unknown
4:00 AM 42.8 °F - 42.8 °F 100% 30.09 in 5.0 mi Calm Calm - N/A Fog Patches of Fog
4:30 AM 41.0 °F - 41.0 °F 100% 30.09 in 6.2 mi Calm Calm - N/A Fog Patches of Fog
5:00 AM 41.0 °F - 41.0 °F 100% 30.09 in 6.2 mi Variable 1.2 mph - N/A Fog Patches of Fog
5:30 AM 39.2 °F - 39.2 °F 100% 30.09 in 6.2 mi Calm Calm - N/A   Unknown
6:00 AM 39.2 °F - 39.2 °F 100% 30.09 in 6.2 mi Calm Calm - N/A   Unknown
6:30 AM 39.2 °F - 39.2 °F 100% 30.09 in 6.2 mi Calm Calm - N/A   Partly Cloudy
7:00 AM 39.2 °F - 39.2 °F 100% 30.09 in 6.2 mi Variable 1.2 mph - N/A   Partly Cloudy
7:30 AM 41.0 °F - 41.0 °F 100% 30.12 in 0.4 mi Calm Calm - N/A Fog Fog
8:00 AM 42.8 °F - 42.8 °F 100% 30.12 in 0.4 mi Calm Calm - N/A Fog Fog
8:23 AM 44.6 °F - 44.6 °F 100% 30.12 in 2.5 mi Variable 1.2 mph - N/A Fog Partly Cloudy
8:30 AM 44.6 °F - 44.6 °F 100% 30.12 in 2.5 mi Variable 1.2 mph - N/A Fog Partly Cloudy
8:32 AM 46.4 °F 45.2 °F 46.4 °F 100% 30.12 in 0.6 mi NE 3.5 mph - N/A Fog Scattered Clouds
9:00 AM 46.4 °F 45.2 °F 46.4 °F 100% 30.12 in 6.2 mi NNE 3.5 mph - N/A   Scattered Clouds
9:30 AM 50.0 °F - 50.0 °F 100% 30.12 in 6.2 mi Variable 2.3 mph - N/A   Scattered Clouds
10:00 AM 53.6 °F - 48.2 °F 82% 30.12 in 6.2 mi ENE 3.5 mph - N/A   Scattered Clouds
10:30 AM 55.4 °F - 44.6 °F 67% 30.12 in 6.2 mi NE 4.6 mph - N/A   Scattered Clouds
11:00 AM 57.2 °F - 48.2 °F 72% 30.12 in 6.2 mi Calm Calm - N/A   Scattered Clouds
11:30 AM 59.0 °F - 50.0 °F 72% 30.09 in 6.2 mi SE 2.3 mph - N/A   Scattered Clouds
12:00 PM 60.8 °F - 46.4 °F 59% 30.09 in 6.2 mi Calm Calm - N/A   Scattered Clouds
12:30 PM 62.6 °F - 50.0 °F 63% 30.09 in 6.2 mi SE 3.5 mph - N/A   Mostly Cloudy
1:00 PM 62.6 °F - 51.8 °F 68% 30.09 in 6.2 mi South 11.5 mph - N/A   Mostly Cloudy
1:30 PM 60.8 °F - 51.8 °F 72% 30.06 in 6.2 mi South 12.7 mph - N/A   Mostly Cloudy
2:00 PM 60 °F - 50 °F 60% 30.05 in 16 mi SSE 13.8 mph - -   Mostly Cloudy
2:00 PM 60.8 °F - 51.8 °F 72% 30.06 in 6.2 mi South 13.8 mph - N/A   Mostly Cloudy
2:30 PM 62.6 °F - 51.8 °F 68% 30.06 in 6.2 mi South 18.4 mph - N/A   Mostly Cloudy
3:00 PM 62.6 °F - 51.8 °F 68% 30.04 in 6.2 mi South 20.7 mph - N/A   Mostly Cloudy
3:30 PM 62.6 °F - 53.6 °F 72% 30.04 in 6.2 mi South 21.9 mph - N/A   Mostly Cloudy
4:00 PM 62.6 °F - 53.6 °F 72% 30.04 in 6.2 mi South 19.6 mph - N/A   Mostly Cloudy
4:30 PM 64.4 °F - 53.6 °F 68% 30.01 in 6.2 mi South 18.4 mph - N/A   Scattered Clouds
5:00 PM 64.4 °F - 53.6 °F 68% 30.01 in 6.2 mi South 18.4 mph - N/A   Scattered Clouds
5:30 PM 64.4 °F - 53.6 °F 68% 29.98 in 6.2 mi South 18.4 mph - N/A   Scattered Clouds
6:00 PM 64.4 °F - 51.8 °F 64% 29.98 in 6.2 mi South 16.1 mph - N/A   Scattered Clouds
6:30 PM 64.4 °F - 51.8 °F 64% 29.98 in 6.2 mi South 13.8 mph - N/A   Scattered Clouds
7:00 PM 62.6 °F - 51.8 °F 68% 29.98 in 6.2 mi SSE 9.2 mph - N/A   Scattered Clouds
7:30 PM 60.8 °F - 51.8 °F 72% 29.98 in 6.2 mi SSE 6.9 mph - N/A   Mostly Cloudy
8:00 PM 60 °F - 51 °F 65% 29.98 in 12 mi SSE 9.2 mph - -   Mostly Cloudy
8:00 PM 60.8 °F - 53.6 °F 77% 29.98 in 6.2 mi SSE 9.2 mph - N/A   Mostly Cloudy
8:30 PM 60.8 °F - 53.6 °F 77% 29.98 in 6.2 mi SSE 8.1 mph - N/A   Mostly Cloudy
9:00 PM 59.0 °F - 53.6 °F 82% 29.98 in 6.2 mi South 6.9 mph - N/A   Mostly Cloudy
9:30 PM 57.2 °F - 53.6 °F 88% 29.98 in 6.2 mi South 5.8 mph - N/A   Mostly Cloudy
10:00 PM 57.2 °F - 53.6 °F 88% 30.01 in 6.2 mi Variable 2.3 mph - N/A   Mostly Cloudy
10:30 PM 55.4 °F - 53.6 °F 94% 30.01 in 6.2 mi Variable 2.3 mph - N/A   Scattered Clouds
11:00 PM 55.4 °F - 53.6 °F 94% 30.01 in 6.2 mi Calm Calm - N/A   Scattered Clouds
11:30 PM 53.6 °F - 53.6 °F 100% 30.01 in 6.2 mi Calm Calm - N/A   Scattered Clouds